Location: ????????
(55.6189°N, 38.3031°E)
Time: 14:10:25
(UTC+00:00)

Cosmos 2151 - Pass Details

Date: 15 November 2019
Orbit: 581 x 602 km, 82.5° (Epoch: 09 December)

Event Time Altitude Azimuth Distance (km) Brightness Sun altitude
Rises 03:10:04 0° 195° (SSW) 2,844 6.4 -15.3°
Reaches altitude 10° 03:12:17 10° 197° (SSW) 1,946 5.5 -15.0°
Maximum altitude 03:16:35 75° 283° (WNW) 630 2.9 -14.4°
Drops below altitude 10° 03:20:55 10° 10° (N) 1,960 5.6 -13.8°
Sets 03:23:09 0° 12° (NNE) 2,866 6.5 -13.5°
